Regional Weather Roundup
Issued by NWS

Home | Current Version | Previous Version | Graphics & Text | Print | Product List | Glossary On
Versions: 1 2 3 4 5 6 7 8 9 10 11 12 13 14 15 16 17 18 19 20 21 22 23 24 25 26 27 28 29 30 31 32 33 34 35 36 37 38 39 40 41 42 43 44 45 46 47 48 49 50
079
ASUS44 KJAN 291510
RWRMS

MISSISSIPPI HOURLY WEATHER ROUNDUP
NATIONAL WEATHER SERVICE JACKSON MS
1000 AM CDT WED OCT 29 2014

NOTE: "FAIR: INDICATES FEW OR NO CLOUDS BELOW 12,000 FEET WITH NO
SIGNIFICANT WEATHER AND/OR OBSTRUCTIONS TO VISIBILITY.

MSZ001>002-007>008-010>013-018>021-025>028-034>036-291600-
NORTHWEST MISSISSIPPI

CITY           SKY/WX    TMP DP  RH WIND       PRES   REMARKS
CLARKSDALE     FAIR      57  54  88 N7        30.22R
CLEVELAND      FAIR      59  54  83 N10       30.20R
GREENWOOD      FAIR      61  52  72 NE10      30.17R
GREENVILLE     FAIR      60  53  77 NE15      30.19R
GRENADA        FAIR      61  50  67 MISG        N/A
OLIVE BRANCH   MOSUNNY   52  52 100 NE5       30.21R
OXFORD         FAIR      55  48  76 NE10      30.21S
TUNICA         FAIR      57  52  82 NE6       30.22S
$$

MSZ003>006-009-014>017-022>024-029>033-037>039-291600-
NORTHEAST MISSISSIPPI

CITY           SKY/WX    TMP DP  RH WIND       PRES   REMARKS
COLUMBUS AFB   CLOUDY    57  54  88 N13       30.15R
CORINTH        FAIR      57  50  77 CALM      30.19R
GOLDN TRIANGLE CLOUDY    57  54  88 N9        30.13R
STARKVILLE     CLOUDY    57  54  88 N5        30.15R
TUPELO         FAIR      59  51  75 NE12      30.17R
$$

MSZ040-058-291600-
CENTRAL MISSISSIPPI

CITY           SKY/WX    TMP DP  RH WIND       PRES   REMARKS
JACKSON INTL   LGT RAIN  65  63  93 N9        30.13R
JACKSON HAWKNS LGT RAIN  64  61  90 NW5       30.14R FOG
MERIDIAN KEY   CLOUDY    73  66  78 N5        30.10S
MERIDIAN NAS   CLOUDY    70  64  81 N7        30.10S
RAYMOND        CLOUDY    63  57  82 N7        30.14R
VICKSBURG      CLOUDY    63  59  87 N9        30.16R
$$

MSZ059>079-291600-
SOUTH MISSISSIPPI

CITY           SKY/WX    TMP DP  RH WIND       PRES   REMARKS
BROOKHAVEN     CLOUDY    70  68  94 NW6       30.13R
COLUMBIA         N/A     72  68  88 MISG      30.10R
HATTIESBURG    PTSUNNY   75  69  81 W9        30.11R
MCCOMB         CLOUDY    70  67  90 VRB6      30.11S
NATCHEZ        CLOUDY    64  63  94 N8        30.14R
PINE BELT      CLOUDY    72  64  78 NW7       30.12S
$$

MSZ080>082-291600-
COASTAL MISSISSIPPI

CITY           SKY/WX    TMP DP  RH WIND       PRES   REMARKS
BAY ST LOUIS   PTSUNNY   70  66  88 CALM      30.11R FOG
BILOXI         FAIR      75  70  83 VRB2      30.10S
PASCAGOULA     FAIR      77  68  73 VRB3      30.10S
GULFPORT       FAIR      73  69  87 W3        30.10S
$$



USA.gov is the U.S. government's official web portal to all federal, state and local government web resources and services.